Location: Limerick
(52.6800°N, 8.6400°W)
Time: 05:05:28
(UTC+01:00)

ISS - All Passes

Search period start: 27 April 2015 00:00
Search period end: 07 May 2015 00:00
Orbit: 395 x 402 km, 51.6° (Epoch: 26 April)

Date Brightness Start Highest point End Pass type
(mag) Time Alt. Az. Time Alt. Az. Time Alt. Az.
27 Apr - 13:36:34 10° SW 13:39:34 35° SSE 13:42:36 10° E daylight
27 Apr - 15:12:27 10° W 15:15:43 73° S 15:18:59 10° E daylight
27 Apr - 16:48:45 10° W 16:51:58 56° SSW 16:55:11 10° ESE daylight
27 Apr - 18:25:27 10° W 18:27:55 19° SSW 18:30:19 10° SSE daylight
28 Apr - 12:42:52 10° SSW 12:45:34 24° SSE 12:48:17 10° E daylight
28 Apr - 14:18:20 10° WSW 14:21:34 64° S 14:24:49 10° E daylight
28 Apr - 15:54:35 10° W 15:57:50 69° S 16:01:06 10° ESE daylight
28 Apr - 17:31:02 10° W 17:33:55 28° SSW 17:36:46 10° SSE daylight
29 Apr - 11:49:28 10° S 11:51:33 16° SE 11:53:41 10° ESE daylight
29 Apr - 13:24:14 10° WSW 13:27:25 50° SSE 13:30:36 10° E daylight
29 Apr - 15:00:22 10° W 15:03:38 75° S 15:06:54 10° E daylight
29 Apr - 16:36:43 10° W 16:39:49 40° SSW 16:42:54 10° SE daylight
29 Apr - 18:14:16 10° WSW 18:15:34 12° SW 18:16:46 10° SSW daylight
30 Apr - 10:57:30 10° SE 10:57:33 10° SE 10:57:43 10° SE daylight
30 Apr - 12:30:13 10° SW 12:33:15 36° SSE 12:36:18 10° E daylight
30 Apr - 14:06:08 10° W 14:09:23 74° S 14:12:39 10° E daylight
30 Apr - 15:42:26 10° W 15:45:38 54° SSW 15:48:50 10° ESE daylight
30 Apr - 17:19:11 10° W 17:21:32 18° SW 17:23:51 10° SSE daylight
01 May - 11:36:21 10° SSW 11:39:05 25° SSE 11:41:52 10° E daylight
01 May - 13:11:53 10° WSW 13:15:07 65° SSE 13:18:22 10° E daylight
01 May - 14:48:07 10° W 14:51:23 67° S 14:54:37 10° ESE daylight
01 May - 16:24:35 10° W 16:27:26 27° SSW 16:30:14 10° SSE daylight
02 May - 10:42:47 10° S 10:44:57 17° SE 10:47:11 10° ESE daylight
02 May - 12:17:39 10° WSW 12:20:49 52° SSE 12:24:01 10° E daylight
02 May - 13:53:47 10° W 13:57:03 75° S 14:00:19 10° E daylight
02 May - 15:30:08 10° W 15:33:13 39° SSW 15:36:16 10° SE daylight
02 May - 17:07:55 10° WSW 17:08:55 11° SW 17:09:50 10° SSW daylight
03 May - 09:50:04 10° SSE 09:50:50 11° SE 09:51:41 10° SE daylight
03 May - 11:23:29 10° SW 11:26:32 38° SSE 11:29:35 10° E daylight
03 May - 12:59:26 10° W 13:02:41 75° S 13:05:56 10° E daylight
03 May - 14:35:43 10° W 14:38:54 53° SSW 14:42:05 10° ESE daylight
03 May - 16:12:31 10° W 16:14:47 17° SW 16:17:00 10° S daylight
04 May - 10:29:28 10° SSW 10:32:14 26° SSE 10:35:03 10° E daylight
04 May - 12:05:02 10° WSW 12:08:16 67° S 12:11:31 10° E daylight
04 May - 13:41:17 10° W 13:44:31 66° S 13:47:46 10° ESE daylight
04 May - 15:17:46 10° W 15:20:33 26° SSW 15:23:18 10° SSE daylight
05 May - 09:35:42 10° S 09:37:58 18° SE 09:40:17 10° E daylight
05 May - 11:10:40 10° WSW 11:13:51 54° SSE 11:17:03 10° E daylight
05 May - 12:46:49 10° W 12:50:05 74° S 12:53:20 10° E daylight
05 May - 14:23:10 10° W 14:26:13 37° SSW 14:29:15 10° SE daylight
05 May - 16:01:19 10° SW 16:01:53 10° SW 16:02:22 10° SSW daylight
06 May - 08:42:40 10° SSE 08:43:43 11° SE 08:44:51 10° ESE daylight
06 May - 10:16:22 10° SW 10:19:25 39° SSE 10:22:30 10° E daylight
06 May - 11:52:20 10° W 11:55:35 75° S 11:58:50 10° E daylight
06 May - 13:28:37 10° W 13:31:47 51° SSW 13:34:57 10° ESE daylight
06 May - 15:05:28 10° WSW 15:07:39 16° SW 15:09:45 10° S daylight
